Location: Axtheid
(49.6213°N, 11.8205°E)
Time: 01:11:45
(UTC+00:00)

Envisat - Pass Details

Date: 25 January 2022
Orbit: 764 x 765 km, 98.2° (Epoch: 22 May)

Event Time Altitude Azimuth Distance (km) Brightness Sun altitude
Rises 03:13:43 0° 23° (NNE) 3,242 6.7 -35.4°
Reaches altitude 10° 03:16:24 10° 36° (NE) 2,311 6.0 -35.0°
Maximum altitude 03:20:40 27° 93° (E) 1,458 4.9 -34.3°
Drops below altitude 10° 03:24:54 10° 150° (SSE) 2,297 5.6 -33.7°
Sets 03:27:33 0° 163° (SSE) 3,219 6.3 -33.2°
